Location: Budiriro 2
(17.9022°S, 30.9231°E)
Time: 08:41:14
(UTC+00:00)

Daily predictions for brighter satellites

Satellite Brightness Start Highest point End
(mag) Time Altitude Azimuth Time Altitude Azimuth Time Altitude Azimuth
Meteor 1-25 Rocket 4.3 15:42:33 10° N 15:47:57 55° E 15:53:23 10° SSE
Cosmos 2056 Rocket 4.0 15:45:20 10° S 15:50:11 38° ESE 15:54:55 10° NE
Cosmos 1707 Rocket 3.5 15:46:07 10° S 15:50:32 83° E 15:54:51 10° N
STARLINK-1039 3.7 15:47:32 10° NW 15:51:41 90° NNW 15:55:52 10° SE
Meteosat 1 Rocket2 4.4 15:43:39 10° WNW 15:52:16 62° SSW 15:57:47 10° ESE
NOAA 12 4.4 15:50:18 10° SSE 15:55:20 45° E 16:00:17 10° N
STARLINK-1045 3.7 15:52:32 10° NW 15:56:40 79° SW 16:00:51 10° SSE
YAOGAN 6 2.9 15:54:05 10° SSE 15:57:36 44° E 16:01:01 10° N
STARLINK-1050 3.9 15:57:32 10° NW 16:01:39 67° SW 16:05:48 10° SSE
Cosmos 2100 Rocket 4.1 15:55:35 10° N 16:01:48 83° W 16:08:02 10° S
H-2A R/B 3.9 15:58:27 10° S 16:02:13 47° WSW 16:05:58 10° NNW
Meteor 1-20 Rocket 4.3 15:57:23 10° N 16:03:02 84° E 16:08:52 10° S
Cosmos 1862 Rocket 3.8 16:00:51 10° S 16:05:13 48° E 16:09:31 10° NNE
STARLINK-1175 3.8 16:04:04 10° N 16:06:19 25° NE 16:07:52 15° ESE
STARLINK-1055 4.1 16:02:32 10° NW 16:06:38 58° SW 16:10:44 10° SSE
Cosmos 1602 3.8 16:05:13 10° N 16:08:56 53° E 16:12:44 10° SSE
STARLINK-1022 4.4 16:07:34 10° NW 16:11:36 50° SW 16:15:39 10° SSE
Meteor 1-14 Rocket 4.4 16:07:02 10° N 16:12:32 55° E 16:18:11 10° SSE
CORIOLIS 4.1 16:07:48 10° SSE 16:13:16 79° ENE 16:18:39 10° N
Cosmos 389 Rocket 3.4 16:10:56 10° SSE 16:13:50 25° E 16:16:42 10° NE
Palapa 6 Rocket 3.2 16:10:15 10° W 16:14:06 64° NNW 16:18:32 10° ENE
Cosmos 1939 Rocket 4.5 16:13:39 15° E 16:14:34 16° E 16:17:02 10° NE
NOSS 2-2 (C) 4.4 16:14:00 10° S 16:19:49 40° ESE 16:24:09 10° NE
BREEZE-M DEB (TANK) 4.4 16:04:57 10° NW 16:19:54 55° WSW 16:23:50 10° SSE
STARLINK-60 3.3 16:18:14 10° SW 16:21:26 67° NW 16:24:35 10° NNE
Cosmos 1869 Rocket 4.0 16:18:05 10° NNE 16:22:06 39° E 16:26:07 10° SSE
Envisat 3.4 16:18:04 10° S 16:23:08 64° WSW 16:28:09 10° NNW
Cosmos 494 Rocket 3.9 16:18:24 10° N 16:23:29 71° ENE 16:28:35 10° SSE
Cosmos 2016 Rocket 4.0 16:18:10 10° N 16:24:23 89° WSW 16:30:44 10° S
Okean O Rocket 3.8 16:21:48 10° SSW 16:25:32 27° WSW 16:29:16 10° NW
Cosmos 1864 Rocket 4.4 16:19:48 10° N 16:25:53 75° E 16:32:04 10° S
CZ-4 R/B 2.6 16:25:41 21° ESE 16:26:43 24° E 16:30:04 10° NNE
SL-16 R/B 3.7 16:22:23 10° NW 16:27:33 36° WSW 16:32:45 10° S
Helios 1A Rocket 3.2 16:24:05 10° S 16:28:08 69° WSW 16:32:09 10° NNW
ARGOS Delta rocket 4.5 16:24:24 10° SSE 16:29:09 37° E 16:33:39 10° NNE
Cosmos 2061 Rocket 4.2 16:23:12 10° N 16:29:29 79° W 16:35:46 10° S
Cosmos 1461 2.7 16:32:02 10° SSW 16:35:53 83° WNW 16:39:45 10° NNE
NOAA 11 4.4 16:30:57 11° SSE 16:36:06 48° E 16:41:23 10° N
YAOGAN 3 4.5 16:31:59 10° SSE 16:36:23 85° ENE 16:40:44 10° N
CZ-2D R/B 4.2 16:39:16 28° ENE 16:39:16 28° ENE 16:42:19 10° NNE
CZ-2C R/B 4.3 16:35:24 10° NE 16:37:03 17° ENE 16:37:03 17° ENE
Cosmos 1703 Rocket 4.0 16:37:16 16° SSE 16:40:21 38° E 16:44:23 10° NNE
Cosmos 2278 Rocket 3.1 16:44:10 10° SSW 16:49:37 50° WNW 16:55:03 10° N
Meteor 1-11 Rocket 4.2 16:44:57 10° NNE 16:49:52 34° E 16:50:12 34° E
STARLINK-29 2.9 16:47:55 10° SW 16:51:11 83° NW 16:51:50 54° NNE
Genesis I 4.3 16:47:55 10° N 16:50:28 28° NE 16:50:28 28° NE
Cosmos 1943 3.1 16:48:34 10° N 16:54:06 62° ENE 16:56:29 34° SE
Cosmos 1500 3.0 16:51:34 10° N 16:55:20 69° E 16:55:37 66° ESE
Cosmos 1603 3.7 16:52:15 10° NNW 16:57:59 90° W 17:01:36 24° SSE
Cosmos 1269 Rocket 4.2 16:58:24 10° NNW 17:03:38 71° WSW 17:07:06 22° S
Cosmos 2346 Rocket 4.4 16:59:23 10° S 17:05:30 88° W 17:11:33 10° N
STARLINK-1146 3.7 17:02:44 10° NNW 17:05:47 55° N 17:05:47 55° N
NOAA 15 4.5 17:06:02 51° SE 17:07:08 64° ENE 17:12:18 10° N
Cosmos 371 Rocket 3.1 17:04:04 10° SSW 17:08:55 87° E 17:13:44 10° NNE
STARLINK-1147 3.8 17:05:15 10° NNW 17:08:11 53° NNW 17:08:11 53° NNW
Delta 7925 Rocket 3.3 17:03:37 10° WNW 17:09:30 79° SSW 17:10:16 64° SE
OAO 3 Rocket 3.1 17:05:40 10° NW 17:10:38 86° NNE 17:11:03 75° ESE
Cosmos 405 Rocket 3.1 17:09:22 10° NNW 17:13:07 60° W 17:13:10 59° W
STARLINK-1185 4.1 17:10:24 10° NW 17:13:10 49° NW 17:13:10 49° NW
Atlas Centaur 2 3.1 17:06:25 10° NW 17:14:12 64° NNE 17:16:49 45° E
CSL-04 Rocket 3.9 17:15:34 51° NE 17:15:34 51° NE 17:20:15 10° N
Okean-O 3.6 17:12:52 20° SSW 17:15:39 45° WSW 17:19:52 10° NNW
Cosmos 44 3.3 17:10:42 10° NNW 17:15:55 88° ENE 17:16:35 69° SSE
STARLINK-1186 4.3 17:13:02 10° NW 17:15:42 45° NW 17:15:42 45° NW
Okean 1-7 3.2 17:19:39 66° WSW 17:19:54 68° W 17:24:11 10° N
STARLINK-1176 4.5 17:19:02 10° NW 17:22:00 46° WNW 17:22:00 46° WNW
H-2A R/B 4.1 16:16:02 10° W 17:25:34 56° S 17:27:40 46° SE
YAOGAN 1 3.2 17:29:04 53° WNW 17:29:04 53° WNW 17:32:39 10° NNW
GPS 2-17 Rocket1 3.9 17:24:57 10° W 17:28:25 45° WSW 17:28:25 45° WSW
Aurora 2 Rocket 4.2 17:23:16 10° W 17:34:00 73° SSW 17:35:59 58° SE
ATLAS 5 CENTAUR R/B 3.0 17:54:27 10° NW 17:57:02 36° N 17:57:02 36° N
CZ-4 R/B 4.3 18:01:41 15° WSW 18:01:41 15° WSW 18:03:47 10° WNW
CZ-3A R/B 4.4 18:35:16 10° WSW 18:48:57 40° WSW 18:48:57 40° WSW
